GW4147 Weather Reports


Display with metric or nautical units.
time (UTC)temp
F
wind
direction
speed
MPH
gust
MPH
rain 1hr
in
rain 24hr
in
rain mn
in
humidity
%
barometer
mb
20260903165732 86 206 3.0 8.0 0.00 0.00 0.00 70 1013.8
20260903165227 86 205 2.0 7.0 0.00 0.00 0.00 69 1013.8
20260903164721 86 186 3.0 8.0 0.00 0.00 0.00 69 1013.7
20260903164217 86 36 1.0 5.0 0.00 0.00 0.00 68 1013.9
20260903163717 85 178 0.0 7.0 0.00 0.00 0.00 70 1013.7
20260903163213 85 67 0.0 9.0 0.00 0.00 0.00 71 1013.8
20260903162709 84 269 0.0 7.0 0.00 0.00 0.00 72 1013.9
20260903162205 84 209 3.0 10.0 0.00 0.00 0.00 71 1014.0
20260903161700 85 203 3.0 8.0 0.00 0.00 0.00 71 1013.9
20260903161156 84 82 4.0 6.0 0.00 0.00 0.00 71 1014.0
20260903160652 84 162 4.0 8.0 0.00 0.00 0.00 72 1014.1
20260903160145 84 193 5.0 6.0 0.00 0.00 0.00 72 1014.0
20260903155644 85 189 4.0 5.0 0.00 0.00 0.00 71 1014.1
20260903155139 84 140 3.0 5.0 0.00 0.00 0.00 72 1013.8
20260903154635 83 185 4.0 8.0 0.00 0.00 0.00 73 1013.7
20260903154131 84 128 2.0 7.0 0.00 0.00 0.00 73 1013.8
20260903153626 83 149 2.0 9.0 0.00 0.00 0.00 74 1013.8
20260903153122 84 186 3.0 9.0 0.00 0.00 0.00 73 1013.7
20260903152618 84 128 1.0 6.0 0.00 0.00 0.00 73 1013.9
20260903152114 83 92 5.0 7.0 0.00 0.00 0.00 73 1013.8
20260903151613 83 148 3.0 7.0 0.00 0.00 0.00 74 1013.9
20260903151109 84 132 4.0 9.0 0.00 0.00 0.00 73 1013.8
20260903150608 82 74 2.0 10.0 0.00 0.00 0.00 76 1013.7
20260903150104 81 71 6.0 6.0 0.00 0.00 0.00 77 1013.7
20260903145603 81 145 5.0 7.0 0.00 0.00 0.00 77 1013.8
20260903145058 81 108 4.0 8.0 0.00 0.00 0.00 77 1013.8
20260903144557 81 157 2.0 7.0 0.00 0.00 0.00 77 1014.0
20260903144053 81 230 3.0 6.0 0.00 0.00 0.00 77 1013.9
20260903143550 81 138 2.0 6.0 0.00 0.00 0.00 77 1013.9
20260903143045 82 139 3.0 8.0 0.00 0.00 0.00 76 1013.8
20260903142540 81 148 4.0 4.0 0.00 0.00 0.00 76 1013.8
20260903142037 81 86 1.0 6.0 0.00 0.00 0.00 77 1013.7
20260903141532 81 126 4.0 5.0 0.00 0.00 0.00 77 1013.7
20260903141027 80 108 2.0 6.0 0.00 0.00 0.00 77 1013.6
20260903140523 80 124 5.0 8.0 0.00 0.00 0.00 77 1013.8
20260903140018 80 106 3.0 5.0 0.00 0.00 0.00 78 1013.7
20260903135514 79 72 3.0 5.0 0.00 0.00 0.00 79 1013.8
20260903135013 80 109 4.0 7.0 0.00 0.00 0.00 79 1013.9
20260903134513 80 91 4.0 8.0 0.00 0.00 0.00 79 1013.7
20260903134009 80 119 4.0 5.0 0.00 0.00 0.00 80 1014.0
20260903133506 79 126 5.0 7.0 0.00 0.00 0.00 81 1013.7
20260903133002 79 82 3.0 6.0 0.00 0.00 0.00 81 1013.8
20260903132457 79 104 3.0 5.0 0.00 0.00 0.00 81 1013.7
20260903131951 79 101 4.0 6.0 0.00 0.00 0.00 81 1013.7
20260903131446 78 86 2.0 4.0 0.00 0.00 0.00 83 1013.9
20260903130945 78 122 3.0 5.0 0.00 0.00 0.00 84 1013.7
20260903130440 78 114 3.0 4.0 0.00 0.00 0.00 85 1013.6
20260903125939 77 111 1.0 5.0 0.00 0.00 0.00 86 1013.6
20260903125433 77 81 4.0 5.0 0.00 0.00 0.00 87 1013.6
20260903124933 77 110 1.0 3.0 0.00 0.00 0.00 87 1013.5
20260903124428 77 95 0.0 3.0 0.00 0.00 0.00 88 1013.6
20260903123927 77 134 3.0 5.0 0.00 0.00 0.00 87 1013.6
20260903123422 77 94 4.0 4.0 0.00 0.00 0.00 88 1013.5
20260903122921 76 124 1.0 3.0 0.00 0.00 0.00 88 1013.4
20260903122420 76 109 1.0 2.0 0.00 0.00 0.00 89 1013.3
20260903121919 75 75 0.0 2.0 0.00 0.00 0.00 89 1013.3
20260903121415 76 245 0.0 1.0 0.00 0.00 0.00 89 1013.3
20260903120911 76 332 1.0 2.0 0.00 0.00 0.00 89 1013.0
20260903120409 76 18 0.0 2.0 0.00 0.00 0.00 89 1013.1
20260903115908 76 86 2.0 3.0 0.00 0.00 0.00 89 1013.2
20260903115403 76 81 2.0 3.0 0.00 0.00 0.00 89 1012.9
20260903114857 76 99 2.0 3.0 0.00 0.00 0.00 88 1013.2
20260903114354 76 145 1.0 3.0 0.00 0.00 0.00 88 1012.9
20260903113849 76 91 4.0 4.0 0.00 0.00 0.00 88 1013.1
20260903113344 76 80 2.0 3.0 0.00 0.00 0.00 87 1013.0
20260903112840 76 41 3.0 4.0 0.00 0.00 0.00 87 1013.1
20260903112336 76 73 2.0 5.0 0.00 0.00 0.00 86 1013.1
20260903111834 77 33 2.0 5.0 0.00 0.00 0.00 86 1013.0
20260903111329 77 77 2.0 4.0 0.00 0.00 0.00 85 1012.8
20260903110826 77 94 2.0 4.0 0.00 0.00 0.00 85 1013.0
20260903110321 77 141 0.0 2.0 0.00 0.00 0.00 85 1013.0
20260903105820 77 46 3.0 4.0 0.00 0.00 0.00 85 1012.8
20260903105315 77 53 0.0 2.0 0.00 0.00 0.00 85 1012.9
20260903104815 77 108 1.0 2.0 0.00 0.00 0.00 85 1012.7
20260903104310 77 144 0.0 2.0 0.00 0.00 0.00 85 1012.5
20260903103807 77 63 2.0 3.0 0.00 0.00 0.00 85 1012.8
20260903103302 77 153 0.0 3.0 0.00 0.00 0.00 85 1012.9
20260903102757 77 223 1.0 3.0 0.00 0.00 0.00 85 1012.8
20260903102252 77 144 1.0 2.0 0.00 0.00 0.00 84 1012.8
20260903101750 77 193 2.0 3.0 0.00 0.00 0.00 84 1012.9
20260903101247 77 114 3.0 4.0 0.00 0.00 0.00 83 1012.8
20260903100741 77 106 2.0 4.0 0.00 0.00 0.00 83 1012.8
20260903100236 77 106 3.0 3.0 0.00 0.00 0.00 83 1012.9
20260903095733 77 139 2.0 6.0 0.00 0.00 0.00 83 1012.9
20260903095228 77 96 2.0 6.0 0.00 0.00 0.00 82 1012.6
20260903094723 78 100 2.0 6.0 0.00 0.00 0.00 82 1012.8
20260903094218 78 102 5.0 6.0 0.00 0.00 0.00 81 1012.9
20260903093714 78 49 7.0 7.0 0.00 0.00 0.00 81 1012.9
20260903093210 78 140 3.0 9.0 0.00 0.00 0.00 80 1012.7
20260903092708 78 104 6.0 8.0 0.00 0.00 0.00 80 1012.7
20260903092203 78 86 5.0 8.0 0.00 0.00 0.00 79 1012.8
20260903091702 79 117 3.0 5.0 0.00 0.00 0.00 78 1012.9
20260903091157 79 98 6.0 7.0 0.00 0.00 0.00 78 1012.8
20260903090653 79 108 5.0 7.0 0.00 0.00 0.00 78 1012.6
20260903090151 79 116 3.0 6.0 0.00 0.00 0.00 78 1012.7
20260903085650 79 86 6.0 9.0 0.00 0.00 0.00 77 1012.7
20260903085146 79 62 3.0 6.0 0.00 0.00 0.00 77 1012.9
20260903084643 79 77 5.0 7.0 0.00 0.00 0.00 76 1012.8
20260903084138 79 101 2.0 5.0 0.00 0.00 0.00 76 1012.8
20260903083633 79 87 3.0 4.0 0.00 0.00 0.00 76 1012.9
20260903083133 79 113 2.0 4.0 0.00 0.00 0.00 76 1012.9
20260903082628 79 120 3.0 6.0 0.00 0.00 0.00 76 1012.9
20260903082124 79 136 5.0 6.0 0.00 0.00 0.00 76 1012.9
20260903081618 79 99 3.0 5.0 0.00 0.00 0.00 76 1012.8
20260903081114 79 88 2.0 5.0 0.00 0.00 0.00 77 1013.1
20260903080610 79 150 2.0 4.0 0.00 0.00 0.00 77 1013.0
20260903080107 79 68 3.0 4.0 0.00 0.00 0.00 77 1013.0
20260903075601 78 122 2.0 6.0 0.00 0.00 0.00 77 1012.8
20260903075056 78 95 3.0 4.0 0.00 0.00 0.00 77 1012.8
20260903074555 78 142 4.0 4.0 0.00 0.00 0.00 77 1012.6
20260903074050 78 80 5.0 6.0 0.00 0.00 0.00 77 1012.9
20260903073546 78 149 1.0 4.0 0.00 0.00 0.00 77 1012.8
20260903073042 78 104 2.0 6.0 0.00 0.00 0.00 77 1012.9
20260903072537 78 82 5.0 8.0 0.00 0.00 0.00 77 1012.7
20260903072033 78 100 2.0 5.0 0.00 0.00 0.00 77 1012.8
20260903071530 78 89 2.0 5.0 0.00 0.00 0.00 77 1012.8
20260903071025 78 85 2.0 7.0 0.00 0.00 0.00 76 1013.1
20260903070524 78 99 2.0 5.0 0.00 0.00 0.00 76 1013.0
20260903070021 79 108 3.0 5.0 0.00 0.00 0.00 75 1013.0
20260903065519 79 65 3.0 5.0 0.00 0.00 0.00 75 1013.0
20260903065014 79 109 3.0 5.0 0.00 0.00 0.00 75 1013.0
20260903064513 79 87 11.0 11.0 0.00 0.00 0.00 74 1013.1
20260903064009 79 128 4.0 10.0 0.00 0.00 0.00 74 1013.1
20260903063504 79 108 6.0 6.0 0.00 0.00 0.00 74 1013.0
20260903062959 80 104 6.0 7.0 0.00 0.00 0.00 73 1013.2
20260903062454 80 124 7.0 10.0 0.00 0.00 0.00 73 1013.3
20260903061950 80 113 8.0 13.0 0.00 0.00 0.00 72 1013.2
20260903061449 80 71 3.0 9.0 0.00 0.00 0.00 72 1013.2
20260903060946 80 88 4.0 9.0 0.00 0.00 0.00 71 1013.2
20260903060440 80 131 7.0 9.0 0.00 0.00 0.00 71 1013.4
20260903055938 80 102 4.0 9.0 0.00 0.00 0.00 71 1013.5
20260903055436 80 117 3.0 9.0 0.00 0.00 0.00 70 1013.6
20260903054931 81 127 5.0 15.0 0.00 0.00 0.00 70 1013.7
20260903054425 81 134 9.0 10.0 0.00 0.00 0.00 69 1013.8
20260903053916 81 147 4.0 8.0 0.00 0.00 0.00 68 1013.6
20260903053416 82 116 10.0 13.0 0.00 0.00 0.00 67 1013.9
20260903052912 82 81 4.0 14.0 0.00 0.00 0.00 66 1013.6
20260903052408 82 111 5.0 12.0 0.00 0.00 0.00 65 1013.4
20260903051903 82 113 5.0 10.0 0.00 0.00 0.00 65 1013.5
20260903051358 82 123 4.0 7.0 0.00 0.00 0.00 64 1013.5
20260903050854 83 77 5.0 6.0 0.00 0.00 0.00 63 1013.5
20260903050352 83 123 4.0 8.0 0.00 0.00 0.00 63 1013.4
20260903045853 83 126 5.0 9.0 0.00 0.00 0.00 62 1013.4
20260903045348 83 113 4.0 13.0 0.00 0.00 0.00 62 1013.0
20260903044845 83 118 5.0 12.0 0.00 0.00 0.00 62 1013.1
20260903044340 84 121 7.0 13.0 0.00 0.00 0.00 61 1013.5
20260903043836 84 94 5.0 15.0 0.00 0.00 0.00 61 1013.3
20260903043331 84 95 6.0 13.0 0.00 0.00 0.00 60 1013.3
20260903042830 84 105 7.0 16.0 0.00 0.00 0.00 60 1013.5
20260903042325 84 122 4.0 12.0 0.00 0.00 0.00 60 1013.5
20260903041822 84 94 6.0 14.0 0.00 0.00 0.00 60 1013.4
20260903041318 84 95 8.0 10.0 0.00 0.00 0.00 60 1013.5
20260903040813 85 116 10.0 12.0 0.00 0.00 0.00 60 1013.5
20260903040312 85 118 3.0 13.0 0.00 0.00 0.00 59 1013.5
20260903035809 85 127 5.0 10.0 0.00 0.00 0.00 58 1013.7
20260903035306 85 116 6.0 11.0 0.00 0.00 0.00 57 1013.5
20260903034759 86 122 8.0 13.0 0.00 0.00 0.00 57 1013.5
20260903034254 86 122 10.0 13.0 0.00 0.00 0.00 57 1013.5
20260903033749 86 125 10.0 11.0 0.00 0.00 0.00 57 1013.4
20260903033243 87 94 5.0 10.0 0.00 0.00 0.00 57 1013.7
20260903032737 87 137 7.0 10.0 0.00 0.00 0.00 56 1013.3
20260903032228 87 107 9.0 14.0 0.00 0.00 0.00 55 1013.3
20260903031724 88 103 6.0 12.0 0.00 0.00 0.00 54 1013.2
20260903031223 88 118 11.0 12.0 0.00 0.00 0.00 53 1013.4
20260903030719 89 144 7.0 10.0 0.00 0.00 0.00 52 1013.4
20260903030214 89 109 7.0 10.0 0.00 0.00 0.00 51 1013.2
20260903025704 89 119 4.0 8.0 0.00 0.00 0.00 51 1013.0
20260903025200 89 111 3.0 9.0 0.00 0.00 0.00 50 1013.0
20260903024654 89 129 7.0 13.0 0.00 0.00 0.00 50 1012.9
20260903024153 89 140 5.0 14.0 0.00 0.00 0.00 50 1013.0
20260903023650 90 81 7.0 12.0 0.00 0.00 0.00 49 1012.9
20260903023150 90 108 4.0 11.0 0.00 0.00 0.00 49 1012.8
20260903022644 90 112 5.0 9.0 0.00 0.00 0.00 49 1012.7
20260903022144 90 109 5.0 13.0 0.00 0.00 0.00 49 1012.8
20260903021644 90 107 7.0 10.0 0.00 0.00 0.00 48 1012.8
20260903021138 90 121 9.0 13.0 0.00 0.00 0.00 48 1012.6
20260903020633 91 96 5.0 11.0 0.00 0.00 0.00 48 1012.7
20260903020128 91 124 5.0 11.0 0.00 0.00 0.00 48 1012.5
20260903015623 91 105 5.0 7.0 0.00 0.00 0.00 48 1012.4
20260903015118 91 85 4.0 7.0 0.00 0.00 0.00 48 1012.6
20260903014613 91 140 8.0 10.0 0.00 0.00 0.00 48 1012.2
20260903014112 91 87 5.0 9.0 0.00 0.00 0.00 47 1012.3
20260903013607 91 122 10.0 11.0 0.00 0.00 0.00 47 1012.2
20260903013101 91 120 7.0 10.0 0.00 0.00 0.00 47 1012.2
20260903012601 92 116 5.0 11.0 0.00 0.00 0.00 46 1012.2
20260903012100 92 86 4.0 10.0 0.00 0.00 0.00 46 1012.0
20260903011554 92 128 4.0 11.0 0.00 0.00 0.00 46 1012.0
20260903011054 92 126 5.0 11.0 0.00 0.00 0.00 46 1012.1
20260903010550 93 113 7.0 12.0 0.00 0.00 0.00 45 1012.1
20260903010048 93 94 5.0 6.0 0.00 0.00 0.00 45 1011.9
20260903005543 93 120 5.0 8.0 0.00 0.00 0.00 45 1012.1
20260903005039 93 59 2.0 6.0 0.00 0.00 0.00 45 1012.1
20260903004538 93 94 6.0 11.0 0.00 0.00 0.00 45 1012.0
20260903004034 94 125 4.0 10.0 0.00 0.00 0.00 44 1011.8
20260903003529 95 88 10.0 16.0 0.00 0.00 0.00 42 1011.9
20260903003024 95 110 6.0 9.0 0.00 0.00 0.00 40 1011.7
20260903002519 95 95 2.0 10.0 0.00 0.00 0.00 40 1011.8
20260903002014 96 83 6.0 9.0 0.00 0.00 0.00 39 1011.7
20260903001514 96 79 4.0 8.0 0.00 0.00 0.00 39 1011.7
20260903001008 96 81 5.0 7.0 0.00 0.00 0.00 39 1011.6
20260903000503 96 97 6.0 10.0 0.00 0.00 0.00 38 1011.6
20260903000002 96 110 4.0 9.0 0.00 0.00 0.00 38 1011.7
20260902235456 97 110 5.0 11.0 0.00 0.00 0.00 37 1011.7
20260902234951 97 53 4.0 10.0 0.00 0.00 0.00 37 1011.7
20260902234446 97 60 7.0 11.0 0.00 0.00 0.00 37 1011.7
20260902233945 97 74 8.0 13.0 0.00 0.00 0.00 37 1011.6
20260902233438 98 69 8.0 9.0 0.00 0.00 0.00 37 1011.7
20260902232939 97 36 9.0 11.0 0.00 0.00 0.00 37 1011.7
20260902232433 98 108 4.0 8.0 0.00 0.00 0.00 36 1011.6
20260902231933 98 71 4.0 8.0 0.00 0.00 0.00 36 1011.6
20260902231428 98 72 6.0 10.0 0.00 0.00 0.00 36 1011.5
20260902230922 98 109 5.0 7.0 0.00 0.00 0.00 36 1011.7
20260902230421 98 83 6.0 7.0 0.00 0.00 0.00 36 1011.5
20260902225915 98 101 8.0 11.0 0.00 0.00 0.00 36 1011.7
20260902225405 98 77 6.0 7.0 0.00 0.00 0.00 36 1011.8
20260902224904 98 81 5.0 8.0 0.00 0.00 0.00 36 1011.6
20260902224404 98 74 8.0 10.0 0.00 0.00 0.00 36 1011.5
20260902223900 98 41 7.0 10.0 0.00 0.00 0.00 36 1011.6
20260902223355 99 117 2.0 7.0 0.00 0.00 0.00 36 1011.6
20260902222850 98 117 7.0 8.0 0.00 0.00 0.00 36 1011.7
20260902222348 98 93 5.0 8.0 0.00 0.00 0.00 37 1011.7
20260902221843 98 84 4.0 11.0 0.00 0.00 0.00 37 1011.7
20260902221342 98 61 5.0 11.0 0.00 0.00 0.00 37 1011.8
20260902220838 99 32 6.0 10.0 0.00 0.00 0.00 36 1011.8
20260902220337 98 37 3.0 7.0 0.00 0.00 0.00 37 1011.9
20260902215832 98 113 11.0 12.0 0.00 0.00 0.00 37 1012.0
20260902215327 98 56 2.0 11.0 0.00 0.00 0.00 36 1012.1
20260902214823 98 82 5.0 13.0 0.00 0.00 0.00 36 1012.1
20260902214322 98 99 8.0 9.0 0.00 0.00 0.00 37 1012.1
20260902213817 98 109 2.0 8.0 0.00 0.00 0.00 37 1012.2
20260902213313 98 107 11.0 15.0 0.00 0.00 0.00 37 1012.3
20260902212811 99 125 7.0 9.0 0.00 0.00 0.00 37 1012.3
20260902212308 97 92 3.0 11.0 0.00 0.00 0.00 38 1012.2
20260902211804 98 61 3.0 9.0 0.00 0.00 0.00 37 1012.3
20260902211259 98 71 8.0 9.0 0.00 0.00 0.00 37 1012.3
20260902210754 97 91 5.0 9.0 0.00 0.00 0.00 38 1012.5
20260902210249 98 87 7.0 12.0 0.00 0.00 0.00 38 1012.4
20260902205746 98 56 7.0 15.0 0.00 0.00 0.00 38 1012.5
20260902205242 98 66 6.0 8.0 0.00 0.00 0.00 38 1012.4
20260902204737 98 187 1.0 5.0 0.00 0.00 0.00 38 1012.6
20260902204232 98 116 4.0 8.0 0.00 0.00 0.00 38 1012.8
20260902203727 98 81 4.0 9.0 0.00 0.00 0.00 37 1012.9
20260902203222 99 69 7.0 10.0 0.00 0.00 0.00 37 1012.7
20260902202716 97 104 2.0 10.0 0.00 0.00 0.00 37 1013.0
20260902202213 98 68 6.0 13.0 0.00 0.00 0.00 36 1013.1
20260902201710 98 125 3.0 7.0 0.00 0.00 0.00 37 1013.1
20260902201209 98 93 5.0 8.0 0.00 0.00 0.00 38 1013.2
20260902200704 97 99 8.0 10.0 0.00 0.00 0.00 39 1013.2
20260902200200 97 12 5.0 10.0 0.00 0.00 0.00 38 1013.5
20260902195655 97 88 3.0 13.0 0.00 0.00 0.00 37 1013.5
20260902195154 97 208 2.0 6.0 0.00 0.00 0.00 38 1013.4
20260902194653 97 113 8.0 9.0 0.00 0.00 0.00 38 1013.6
20260902194149 96 60 4.0 6.0 0.00 0.00 0.00 40 1013.6
20260902193644 96 4 2.0 10.0 0.00 0.00 0.00 40 1013.6
20260902193144 96 132 2.0 4.0 0.00 0.00 0.00 40 1013.6
20260902192642 95 11 3.0 8.0 0.00 0.00 0.00 42 1013.9
20260902192137 96 15 9.0 11.0 0.00 0.00 0.00 41 1013.8
20260902191631 96 35 3.0 11.0 0.00 0.00 0.00 42 1014.0
20260902191126 97 38 7.0 8.0 0.00 0.00 0.00 41 1014.2
20260902190621 96 94 3.0 5.0 0.00 0.00 0.00 42 1014.1
20260902190116 95 106 3.0 12.0 0.00 0.00 0.00 42 1014.3
20260902185612 96 99 7.0 9.0 0.00 0.00 0.00 41 1014.3
20260902185108 95 71 4.0 7.0 0.00 0.00 0.00 42 1014.2
20260902184603 95 40 11.0 12.0 0.00 0.00 0.00 41 1014.3
20260902184058 95 104 3.0 6.0 0.00 0.00 0.00 41 1014.4
20260902183554 95 13 6.0 10.0 0.00 0.00 0.00 40 1014.5
20260902183051 96 15 10.0 10.0 0.00 0.00 0.00 40 1014.7
20260902182546 96 182 3.0 9.0 0.00 0.00 0.00 42 1014.7
20260902182043 95 60 2.0 5.0 0.00 0.00 0.00 43 1014.8
20260902181538 94 97 7.0 12.0 0.00 0.00 0.00 44 1015.0
20260902181038 94 60 8.0 9.0 0.00 0.00 0.00 44 1015.1
20260902180532 94 65 5.0 8.0 0.00 0.00 0.00 45 1015.1
20260902180029 94 353 5.0 8.0 0.00 0.00 0.00 45 1015.1
20260902175528 95 29 7.0 11.0 0.00 0.00 0.00 45 1015.4
20260902175024 95 181 1.0 6.0 0.00 0.00 0.00 45 1015.5
20260902174521 94 284 1.0 6.0 0.00 0.00 0.00 45 1015.5
20260902174015 93 259 4.0 5.0 0.00 0.00 0.00 46 1015.5
20260902173510 94 113 5.0 10.0 0.00 0.00 0.00 46 1015.6
20260902173005 93 111 2.0 6.0 0.00 0.00 0.00 46 1015.6
20260902172504 93 108 9.0 11.0 0.00 0.00 0.00 46 1015.6
20260902171959 93 99 6.0 7.0 0.00 0.00 0.00 46 1015.9
20260902171455 93 47 2.0 9.0 0.00 0.00 0.00 47 1015.9
20260902170951 94 106 3.0 10.0 0.00 0.00 0.00 46 1016.0
20260902170450 94 116 5.0 10.0 0.00 0.00 0.00 46 1015.9
20260902165946 94 129 4.0 7.0 0.00 0.00 0.00 46 1016.0